MOLNIYA 1-80 1 21118U 91012A 10072.51287935 .00000796 00000-0 10000-3 0 7822 2 21118 61.8832 229.0687 7219078 256.2943 20.6468 2.01013922139742 MOLNIYA 3-40 1 21196U 91022A 10073.29027490 -.00001262 00000-0 10000-3 0 1311 2 21196 61.7289 211.4260 7210492 258.7328 19.5759 2.00834473139066 MOLNIYA 1-81 1 21426U 91043A 10072.90203873 .00000284 00000-0 10000-3 0 2502 2 21426 61.9711 201.9056 7170479 268.3742 16.1117 2.00622703137316 MOLNIYA 3-41 1 21706U 91065A 10072.10304538 .00005403 55624-6 39179-3 0 5337 2 21706 62.5926 15.7040 7516407 279.4469 10.5993 2.01811222135449 MOLNIYA 3-42 1 22178U 92067A 10072.26954818 .00000189 00000-0 -24673-2 0 7998 2 22178 61.9340 155.1594 7260344 266.3957 16.1131 2.00646150127578 MOLNIYA 1-86 1 22671U 93035A 10072.99420790 -.00001185 00000-0 13413-3 0 2497 2 22671 62.1106 100.7615 7403465 272.9468 12.8915 2.03242333123490 MOLNIYA 3-45 1 22729U 93049A 10072.44460504 -.00000943 00000-0 00000+0 0 9811 2 22729 62.0500 243.4059 7289191 255.8015 20.1448 2.00246185121659 MOLNIYA 1-87 1 22949U 93079A 10072.73414339 -.00001410 00000-0 -15103-2 0 4645 2 22949 63.6633 21.3745 7332767 248.9669 23.4244 2.00831573118936 MOLNIYA 1-88 1 23420U 94081A 10071.40688484 .00000190 00000-0 -38860-3 0 613 2 23420 61.9455 193.8508 7307100 265.6084 15.9695 2.02262747111826 MOLNIYA 3-47 1 23642U 95042A 10071.84705815 .00000339 00000-0 53189-3 0 5185 2 23642 63.2302 359.1945 7419622 254.0515 19.7677 2.00633263106935 MOLNIYA 1-89 1 24273U 96045A 10072.58838184 .00003378 00000-0 31338-3 0 4534 2 24273 62.6559 259.8596 6977047 258.5446 22.0024 2.69622663101487 MOLNIYA 1-90 1 24960U 97054A 10072.96919723 .00000113 00000-0 10000-3 0 7393 2 24960 63.6630 47.8070 7404727 253.3267 20.2926 2.00662933 91396 MOLNIYA 3-49 1 25379U 98040A 10072.66551923 .00004726 -63403-6 19682-3 0 615 2 25379 63.4819 10.9267 7528742 253.9854 18.6614 2.01291514 85739 MOLNIYA 1-91 1 25485U 98054A 10072.80706510 .00000217 00000-0 10000-3 0 8732 2 25485 63.8372 151.2116 6877858 258.1780 53.2634 2.00618863 83910 MOLNIYA 3-50 1 25847U 99036A 10072.49090283 -.00000132 00000-0 10000-3 0 8077 2 25847 63.6164 239.0884 6913164 265.1150 19.5523 2.00609124 78259 MOLNIYA 3-51 1 26867U 01030A 10073.36254429 .00000272 00000-0 00000+0 0 967 2 26867 64.1166 172.2372 6978033 263.6256 49.4168 2.00696476 63376 MOLNIYA 1-92 1 27707U 03011A 10073.19649054 .00000243 00000-0 10000-3 0 5187 2 27707 64.7691 177.0475 6975013 259.4907 284.4956 2.00541310 50915 MOLNIYA 3-53 1 27834U 03029A 10073.19342666 .00000216 00000-0 00000+0 0 3404 2 27834 64.8047 176.9375 6969685 260.0206 282.6382 2.00603112 49333 MOLNIYA 1-93 1 28163U 04005A 10073.00921762 .00000134 00000-0 10000-3 0 1621 2 28163 64.8754 254.8908 7066459 272.1340 345.8027 2.00566151 44449